Regional Weather Roundup
Issued by NWS

Home | Current Version | Previous Version | Text Only | Print | Product List | Glossary Off
Versions: 1 2 3 4 5 6 7 8 9 10 11 12 13 14 15 16 17 18 19 20 21 22 23 24 25 26 27 28 29 30 31 32 33 34 35 36 37 38 39 40 41 42 43 44 45 46 47 48 49 50

000
ASUS45 KABQ 220310
RWRNM
WEATHER ROUNDUP FOR NEW MEXICO
NATIONAL WEATHER SERVICE ALBUQUERQUE NM
900 PM MDT THU AUG 21 2014

NOTE: "FAIR" MEANS FEW OR NO CLOUDS BELOW 12,000 FEET AGL WITH NO
       SIGNIFICANT WEATHER OR OBSTRUCTIONS TO VISION.

      THIS PRODUCT IS RELEASED AS TWO VERSIONS.  ONE VERSION NEAR
      THE TOP OF THE HOUR CONTAINING PRELIMINARY DATA FROM ALBUQUERQUE
      AND OTHER STATIONS.  A FINAL VERSION WITH ADDITIONAL DATA IS
      ISSUED ABOUT 10 MINUTES AFTER THE HOUR.

NMZ501-503-504-510>518-220400-
NORTHWEST PLATEAU/NORTHCENTRAL MOUNTAINS

CITY           SKY/WX    TMP DP  RH WIND       PRES   REMARKS
FARMINGTON     MOCLDY    76  35  22 NW10      30.12S
LOS ALAMOS     MOCLDY    71  38  29 SW7       30.25R
SANTA FE       PTCLDY    72  36  26 SW6       30.17R
TAOS           MOCLDY    66  30  26 E8        30.24R
ANGEL FIRE     FAIR      55  39  55 CALM      30.35R

$$
NMZ402-403-502-505>509-220400-
WESTCENTRAL MOUNTAINS/SOUTHWEST MOUNTAINS

CITY           SKY/WX    TMP DP  RH WIND       PRES   REMARKS
GALLUP         LGT RAIN  62  51  67 SW6       30.27R
SILVER CITY    CLOUDY    75  50  41 NW15      30.16R

$$
NMZ407-409-411-412-220400-
SOUTHERN DESERTS

CITY           SKY/WX    TMP DP  RH WIND       PRES   REMARKS
LORDSBURG      FAIR      75  54  46 W15       30.10R
DEMING         CLOUDY    83  46  27 W8        30.05R
LAS CRUCES     CLOUDY    84  43  23 W7        30.07R
HOLLOMAN AFB   CLOUDY    88  48  25 S9        30.01R
ALAMOGORDO     CLOUDY    84  46  26 S8        30.04R
T OR C         CLOUDY    83  41  22 S10       30.06R

$$
NMZ519>523-220400-
CENTRAL VALLEYS/CENTRAL HIGHLANDS

CITY           SKY/WX    TMP DP  RH WIND       PRES   REMARKS
ALBUQUERQUE    MOCLDY    78  39  24 E6        30.10R
DOUBLE EAGLE   CLEAR     75  39  27 CALM      30.14R
MORIARTY ARPT  FAIR      67  42  41 CALM      30.18R
CLINES CORNERS MOCLDY    69  40  34 SW9       30.23R
BELEN          FAIR      74  45  35 SW5       30.09R
SOCORRO        FAIR      83  41  22 SW6       30.07R

$$
NMZ524>526-539-540-220400-
SOUTHCENTRAL MOUNTAINS

CITY           SKY/WX    TMP DP  RH WIND       PRES   REMARKS
RUIDOSO        PTCLDY    66  46  48 SW9       30.26R

$$
NMZ527>531-220400-
NORTHEAST HIGHLANDS/NORTHEAST PLAINS

CITY           SKY/WX    TMP DP  RH WIND       PRES   REMARKS
LAS VEGAS      MOCLDY    65  41  41 S10       30.22R
RATON          MOCLDY    68  43  40 CALM      30.14R
CLAYTON        CLEAR     73  53  49 SE6       30.07R

$$
NMZ532>537-220400-
EASTCENTRAL PLAINS

CITY           SKY/WX    TMP DP  RH WIND       PRES   REMARKS
TUCUMCARI      CLEAR     81  46  29 SW7       29.98R
CANNON AFB     PTCLDY    81  52  35 S8        30.05R
CLOVIS AIRPORT   N/A     79  54  41 S5        30.06R

$$
NMZ028-029-538-220400-
SOUTHEAST PLAINS

CITY           SKY/WX    TMP DP  RH WIND       PRES   REMARKS
ROSWELL        MOCLDY    88  55  32 S17       29.98R
ARTESIA        MOCLDY    88  55  33 S16       29.98R
CARLSBAD       CLOUDY    88  57  34 S17G23    29.98R
HOBBS          MOCLDY    81  59  47 S25       30.05R


$$



USA.gov is the U.S. government's official web portal to all federal, state and local government web resources and services.